Location: Buckland
(65.9785°N, 161.1281°W)
Time: 13:39:51
(UTC+00:00)

SPROUT - Pass Details

Date: 26 January 2021
Orbit: 597 x 609 km, 97.9° (Epoch: 05 March)

Event Time Altitude Azimuth Distance (km) Brightness Sun altitude
Exits shadow 07:06:38 12° 3° (N) 1,870 ? -29.9°
Drops below altitude 10° 07:07:18 10° 355° (N) 1,981 ? -30.0°
Sets 07:10:31 0° 329° (NNW) 2,889 ? -30.3°
